[[{"header":{"parameterUnit":"m.s-1","parameterCategory":1,"la1":30.2991,"la2":30.254,"lo1":-89.0895,"lo2":-89.0444,"dy":0.0017,"dx":0.0017,"nx":28,"ny":28,"refTime":"2025-12-01T09:00:00:Z","depth":0,"parameterNumber":2,"parameterNumberName":"U-component_of_WINDS"},"data":[0,0,0,0,0,0,0,0,0,0,0,0,0,0,0,0,0,0,0,0,0,0,0,0,0,0,0,0,0,0,0,0,0,0,0,0,0,0,0,0,0,0,0,0,0,0,0,0,0,0,0,0,0,0,0,0,0,0,2.6786,2.6786,0,2.6798,2.6798,2.6798,2.6758,2.6756,2.6755,2.6754,2.6766,2.6767,2.6769,0,0,0,0,0,0,0,0,0,0,0,0,0,2.6731,2.6733,2.6786,2.6786,2.6787,2.6798,2.6798,2.6798,2.6758,2.6756,2.6755,2.6753,2.6765,2.6767,2.6769,0,0,0,0,0,0,0,0,0,0,0,0,0,2.675,2.6733,2.6786,2.6768,2.6766,2.6798,2.6798,2.6798,2.6758,2.6756,2.6754,2.6753,2.6765,2.6767,2.6769,2.6818,0,0,2.6775,2.6776,0,0,0,0,0,0,0,0,2.6749,2.6752,2.677,2.6769,2.6768,2.6774,2.6783,2.6805,2.6759,2.6761,2.6754,2.6752,2.677,2.6772,2.6778,2.6819,2.6819,2.6776,2.6777,2.6778,2.6779,0,0,0,0,0,0,0,2.6748,2.6752,2.6791,2.6771,2.6769,2.676,2.676,2.6787,2.6776,2.6761,2.6758,2.676,2.6769,2.6776,2.6778,2.682,2.6776,2.6778,2.6779,2.678,2.6904,2.6906,0,0,0,0,0,0,2.6749,2.6751,2.679,2.6791,2.6754,2.6762,2.6763,2.6774,2.6775,2.6774,2.6761,2.6758,2.6773,2.6775,2.6778,2.6837,2.6778,2.678,2.6781,2.6902,2.6905,2.6907,0,0,0,0,0,0,2.6748,2.6753,2.679,2.677,2.6774,2.6765,2.6778,2.6775,2.6782,2.6776,2.6774,2.677,2.6772,2.6775,2.6809,2.6837,2.6781,2.6783,2.69,2.6903,2.6906,2.6955,0,0,0,0,0,0,2.6747,2.6753,2.6771,2.6771,2.6775,2.682,2.6779,2.6777,2.6786,2.6781,2.6783,2.6782,2.677,2.6806,2.6811,2.6839,2.6785,2.6897,2.6901,2.6905,2.6951,2.696,2.6967,0,0,0,0,0,2.6745,2.6784,2.6772,2.6777,2.6798,2.6822,2.6825,2.681,2.6788,2.6807,2.6803,2.6782,2.6833,2.681,2.6815,2.6844,2.6896,2.69,2.6905,2.6948,2.6958,2.6967,0,0,0,0,0,0,2.6787,2.6784,2.677,2.6811,2.6817,2.6815,2.6838,2.6822,2.6834,2.683,2.6812,2.6813,2.6851,2.6851,2.6825,2.6893,2.6861,2.6867,2.6892,2.6901,2.6909,2.6908,2.6786,0,0,0,0,0,2.6801,2.6821,2.6817,2.6853,2.6857,2.6847,2.6857,2.6846,2.6852,2.6854,2.6853,2.686,2.6878,2.6889,2.6905,2.6951,2.6952,2.6974,2.6982,2.6989,2.6994,2.702,2.703,2.6922,2.6922,2.6922,0,0,2.683,2.6831,2.6844,2.6862,2.6865,2.6887,2.685,2.6873,2.6889,2.6858,2.689,2.689,2.6896,2.6937,2.6955,2.6939,2.7024,2.6994,2.7,2.7001,2.7026,2.7036,2.7045,2.6925,2.6924,2.6924,0,0,2.6894,2.6896,2.6927,2.6932,2.6939,2.6932,2.694,2.6941,2.694,2.6972,2.695,2.6969,2.6999,2.7005,2.7012,2.7082,2.7063,2.7088,2.7129,2.7154,2.7163,2.717,2.7196,2.7205,2.7093,2.7093,2.7093,0,2.693,2.6961,2.6945,2.6971,2.698,2.6954,2.6985,2.6991,2.7002,2.7009,2.6991,2.703,2.7032,2.7075,2.7092,2.7099,2.7107,2.7087,2.7163,2.717,2.7177,2.7201,2.7211,2.7096,2.7095,2.7095,2.7095,0,2.7004,2.7027,2.7051,2.7063,2.7075,2.7104,2.7094,2.7108,2.7096,2.7092,2.7126,2.7129,2.7145,2.7155,2.7143,2.7197,2.7186,2.7166,2.7132,2.719,2.7213,2.7222,2.71,2.7099,2.7098,2.7097,0,0,2.7094,2.7099,2.7108,2.7114,2.712,2.7137,2.7166,2.7183,2.7195,2.7205,2.7229,2.7256,2.7238,2.7246,2.7235,2.7258,2.7314,2.7235,2.7235,2.725,2.7375,2.739,2.7401,2.7302,2.7304,2.7305,2.7374,0,2.7157,2.7206,2.7194,2.7242,2.7263,2.724,2.7265,2.7272,2.7269,2.7287,2.7285,2.7305,2.7278,2.7284,2.7305,2.7303,2.7339,2.7298,2.7325,2.7326,2.7324,2.7413,2.7429,2.7494,2.7383,2.7384,2.7386,0,2.7238,2.7251,2.7302,2.7306,2.7314,2.7337,2.7352,2.737,2.7378,2.7375,2.7385,2.7371,2.74,2.7367,2.7408,2.738,2.7391,2.7392,2.7394,2.7396,2.7359,2.7418,2.7514,2.7524,2.7399,2.7398,2.7397,0,2.7299,2.7329,2.7364,2.737,2.7376,2.7392,2.7396,2.7402,2.7414,2.7427,2.7435,2.7452,2.7461,2.7475,2.7466,2.7443,2.7509,2.7475,2.7508,2.7508,2.7523,2.7522,2.7622,2.7529,2.7529,2.7529,2.7529,0,2.7371,2.7403,2.7392,2.7413,2.7449,2.7436,2.7472,2.7472,2.7479,2.7501,2.7481,2.7502,2.7489,2.7509,2.7502,2.7538,2.7542,2.7541,2.7539,2.7543,2.7543,2.7549,2.7545,2.7532,2.7531,2.7531,2.753,0,2.7445,2.7439,2.7475,2.7478,2.748,2.7506,2.7509,2.753,2.7527,2.7555,2.7561,2.7556,2.7579,2.7572,2.7596,2.7592,2.7637,2.7629,2.7634,2.7633,2.7666,2.7663,2.7775,2.7789,2.7686,2.7687,2.7688,0,2.7492,2.7516,2.7522,2.7536,2.7541,2.7562,2.7574,2.7563,2.7576,2.7589,2.7608,2.763,2.7646,2.7684,2.7683,2.7702,2.7695,2.7733,2.7698,2.7702,2.7696,2.7695,2.7698,2.774,2.7741,2.7742,2.7742,0,2.7575,2.7572,2.7589,2.7607,2.7622,2.7636,2.7647,2.7659,2.7649,2.7665,2.7689,2.7702,2.7728,2.775,2.7768,2.7772,2.7756,2.7754,2.7763,2.7767,2.7769,2.7769,2.7654,2.7751,2.775,2.775,2.7749,2.7749,2.7637,2.7659,2.7667,2.7688,2.7696,2.7708,2.7728,2.7728,2.7747,2.7767,2.776,2.7787,2.7797,2.7819,2.7826,2.7848,2.7834,2.7846,2.7849,2.7853,2.7857,2.7766,2.7851,2.7851,2.7851,2.785,2.785,0,2.7721,2.7725,2.7745,2.7763,2.778,2.7764,2.7777,2.7792,2.7817,2.7827,2.7844,2.7872,2.7894,2.7896,2.7916,2.7934,2.7927,2.794,2.7938,2.794,2.7869,2.7859,2.7945,2.7945,2.7945,2.7945,2.7945,2.7945,2.7766,2.7802,2.7799,2.7839,2.7843,2.787,2.7879,2.789,2.7899,2.7931,2.7949,2.795,2.7958,2.7979,2.7999,2.7999,2.8008,2.8023,2.8021,2.7954,2.7945,2.7936,2.7927,2.8025,2.8025,2.809,2.8091,2.8091]},{"header":{"parameterUnit":"m.s-1","parameterCategory":1,"la1":30.2991,"la2":30.254,"lo1":-89.0895,"lo2":-89.0444,"dy":0.0017,"dx":0.0017,"nx":28,"ny":28,"refTime":"2025-12-01T09:00:00:Z","depth":0,"parameterNumber":3,"parameterNumberName":"V-component_of_WINDS"},"data":[0,0,0,0,0,0,0,0,0,0,0,0,0,0,0,0,0,0,0,0,0,0,0,0,0,0,0,0,0,0,0,0,0,0,0,0,0,0,0,0,0,0,0,0,0,0,0,0,0,0,0,0,0,0,0,0,0,0,-6.5839,-6.5841,0,-6.5963,-6.5964,-6.5966,-6.596,-6.5958,-6.5956,-6.5955,-6.6075,-6.6079,-6.6084,0,0,0,0,0,0,0,0,0,0,0,0,0,-6.5593,-6.5598,-6.5839,-6.5841,-6.5842,-6.5963,-6.5964,-6.5966,-6.596,-6.5958,-6.5956,-6.5954,-6.6073,-6.6079,-6.6085,0,0,0,0,0,0,0,0,0,0,0,0,0,-6.5707,-6.5599,-6.5839,-6.5854,-6.5857,-6.5962,-6.5964,-6.5966,-6.5961,-6.5958,-6.5955,-6.5953,-6.6071,-6.6078,-6.6085,-6.6182,0,0,-6.6107,-6.611,0,0,0,0,0,0,0,0,-6.57,-6.5716,-6.585,-6.5853,-6.5856,-6.5943,-6.5922,-6.6038,-6.5961,-6.5921,-6.5955,-6.5952,-6.6033,-6.6043,-6.6072,-6.6187,-6.6193,-6.6108,-6.6112,-6.6115,-6.6117,0,0,0,0,0,0,0,-6.5692,-6.571,-6.5888,-6.5852,-6.5856,-6.5853,-6.5866,-6.5944,-6.599,-6.5924,-6.5924,-6.5939,-6.6034,-6.6065,-6.6074,-6.6194,-6.6108,-6.6114,-6.6119,-6.6121,-6.6397,-6.64,0,0,0,0,0,0,-6.5682,-6.5704,-6.5884,-6.5892,-6.5771,-6.586,-6.5874,-6.5918,-6.5989,-6.5997,-6.5941,-6.5939,-6.6054,-6.6066,-6.6078,-6.6197,-6.6115,-6.6122,-6.6126,-6.6394,-6.6398,-6.6401,0,0,0,0,0,0,-6.5677,-6.5698,-6.5879,-6.5798,-6.5821,-6.5867,-6.5916,-6.5922,-6.5953,-6.6002,-6.6009,-6.5965,-6.6052,-6.6068,-6.6157,-6.6201,-6.6125,-6.6132,-6.639,-6.6395,-6.6399,-6.6434,0,0,0,0,0,0,-6.567,-6.5696,-6.5734,-6.5799,-6.5825,-6.5957,-6.5918,-6.5926,-6.5966,-6.5963,-6.6026,-6.6034,-6.6051,-6.6146,-6.6164,-6.621,-6.6138,-6.6387,-6.6393,-6.6398,-6.643,-6.644,-6.6448,0,0,0,0,0,-6.5661,-6.5738,-6.5736,-6.5758,-6.5874,-6.5959,-6.5974,-6.5995,-6.5969,-6.6008,-6.604,-6.6032,-6.6194,-6.6155,-6.6175,-6.6224,-6.6384,-6.6391,-6.6397,-6.6425,-6.6438,-6.6448,0,0,0,0,0,0,-6.5674,-6.5746,-6.5746,-6.5846,-6.5897,-6.5958,-6.6007,-6.6007,-6.6065,-6.6059,-6.6081,-6.6095,-6.6184,-6.6213,-6.6169,-6.6322,-6.6285,-6.6296,-6.63,-6.6312,-6.6321,-6.6312,-6.6144,0,0,0,0,0,-6.5689,-6.5755,-6.5813,-6.5896,-6.5922,-6.596,-6.5998,-6.601,-6.6063,-6.6084,-6.6122,-6.6172,-6.6234,-6.6275,-6.6334,-6.6434,-6.6447,-6.6477,-6.6487,-6.6494,-6.6503,-6.6559,-6.6573,-6.6423,-6.6423,-6.6423,0,0,-6.572,-6.5767,-6.5807,-6.59,-6.5941,-6.6007,-6.5978,-6.6048,-6.6097,-6.6094,-6.6181,-6.6211,-6.6268,-6.6363,-6.6406,-6.6389,-6.6548,-6.6503,-6.6508,-6.6513,-6.6567,-6.6581,-6.6594,-6.6428,-6.6427,-6.6426,0,0,-6.581,-6.5852,-6.5927,-6.5969,-6.6033,-6.6059,-6.6076,-6.6139,-6.616,-6.6248,-6.6247,-6.6304,-6.6411,-6.6452,-6.6487,-6.6596,-6.6591,-6.6615,-6.6663,-6.6717,-6.6729,-6.6739,-6.6778,-6.6792,-6.6624,-6.6624,-6.6624,0,-6.5839,-6.594,-6.5964,-6.6036,-6.6077,-6.608,-6.6155,-6.6194,-6.6273,-6.6301,-6.6281,-6.6417,-6.6455,-6.6561,-6.6588,-6.6616,-6.6636,-6.6607,-6.6726,-6.6736,-6.6747,-6.6784,-6.6799,-6.6626,-6.6626,-6.6626,-6.6625,0,-6.5974,-6.6044,-6.6096,-6.6176,-6.6223,-6.6295,-6.6329,-6.6373,-6.6382,-6.6409,-6.6499,-6.6546,-6.6616,-6.6642,-6.6649,-6.6749,-6.6737,-6.6721,-6.6685,-6.6763,-6.6799,-6.6813,-6.663,-6.6629,-6.6628,-6.6627,0,0,-6.6073,-6.6168,-6.6186,-6.6223,-6.6295,-6.6349,-6.6422,-6.6494,-6.6531,-6.6586,-6.6647,-6.6739,-6.6726,-6.6766,-6.6778,-6.6826,-6.691,-6.6805,-6.6806,-6.6823,-6.7022,-6.7034,-6.705,-6.6907,-6.691,-6.6912,-6.7018,0,-6.6171,-6.6303,-6.6328,-6.6442,-6.6508,-6.6513,-6.6576,-6.6627,-6.6655,-6.6713,-6.6742,-6.6808,-6.6785,-6.681,-6.6857,-6.6889,-6.695,-6.6882,-6.6963,-6.6966,-6.6949,-6.7068,-6.708,-6.7177,-6.7032,-6.7034,-6.7036,0,-6.6302,-6.6363,-6.6485,-6.6551,-6.6579,-6.6636,-6.6704,-6.676,-6.6817,-6.6834,-6.688,-6.6888,-6.6963,-6.6925,-6.7028,-6.6981,-6.7016,-6.7037,-6.7042,-6.7049,-6.7005,-6.7079,-6.7208,-6.7223,-6.7058,-6.7056,-6.7054,0,-6.6363,-6.6476,-6.6564,-6.6595,-6.6673,-6.6714,-6.6747,-6.6802,-6.6844,-6.6903,-6.6931,-6.6997,-6.7033,-6.7083,-6.7108,-6.7078,-6.721,-6.7173,-6.7226,-6.7225,-6.7252,-6.725,-6.7389,-6.7275,-6.7275,-6.7275,-6.7275,0,-6.6469,-6.6543,-6.6593,-6.6647,-6.6731,-6.6758,-6.684,-6.6872,-6.6922,-6.6981,-6.6989,-6.7044,-6.7074,-6.7134,-6.7153,-6.7237,-6.7252,-6.7267,-6.7272,-6.7267,-6.7265,-6.7289,-6.7283,-6.7279,-6.7278,-6.7277,-6.7276,0,-6.655,-6.6587,-6.6683,-6.6751,-6.6769,-6.6828,-6.6885,-6.6937,-6.6966,-6.7041,-6.706,-6.7105,-6.7175,-6.7206,-6.7292,-6.7305,-6.7401,-6.74,-6.7382,-6.7383,-6.7434,-6.7429,-6.7593,-6.7616,-6.7487,-6.7488,-6.7489,0,-6.6615,-6.6674,-6.6748,-6.679,-6.6826,-6.6893,-6.6937,-6.6966,-6.7011,-6.7082,-6.7126,-6.7198,-6.7256,-6.7369,-6.7408,-6.7474,-6.7475,-6.7528,-6.7484,-6.7478,-6.7476,-6.7472,-6.7478,-6.7535,-6.7536,-6.7537,-6.7538,0,-6.6727,-6.6743,-6.6808,-6.6879,-6.6932,-6.6989,-6.7045,-6.7078,-6.7116,-6.7166,-6.724,-6.7286,-6.7376,-6.7447,-6.7516,-6.7549,-6.755,-6.7552,-6.7568,-6.7563,-6.755,-6.7558,-6.7404,-6.7548,-6.7547,-6.7546,-6.7546,-6.7545,-6.6803,-6.6855,-6.6917,-6.6989,-6.7034,-6.7087,-6.714,-6.7177,-6.724,-6.7317,-6.733,-6.7409,-6.7466,-6.7559,-6.7595,-6.7657,-6.7643,-6.7665,-6.7671,-6.7676,-6.768,-6.7542,-6.7669,-6.7669,-6.7669,-6.7668,-6.7668,0,-6.6915,-6.6956,-6.7022,-6.7101,-6.7158,-6.7157,-6.7219,-6.7266,-6.7336,-6.739,-6.7449,-6.7535,-6.7604,-6.765,-6.7719,-6.776,-6.7762,-6.7777,-6.7774,-6.7782,-6.7687,-6.7667,-6.7774,-6.7774,-6.7774,-6.7774,-6.7774,-6.7774,-6.6981,-6.707,-6.7093,-6.7205,-6.7245,-6.7325,-6.736,-6.7408,-6.7452,-6.7548,-6.7607,-6.7637,-6.7688,-6.7762,-6.7825,-6.7837,-6.7862,-6.7878,-6.7888,-6.7799,-6.7788,-6.7778,-6.7759,-6.7883,-6.7883,-6.7978,-6.7978,-6.7979]}]]